DAL2072 KATL-KMSY

Flight info

Callsign DAL2072
Flight time N/A
Altitude 34000
Route POUNC2 GRGIA SJI MNSTR1
Aircraft B752/M-SDE3FGHIM3RWXY/LB1

Departure

Time 2026-05-04 02:17
Airport Hartsfield Jackson Atlanta International Airport (KATL)

Arrival

Time N/A
Airport Louis Armstrong New Orleans International Airport (KMSY)
Time Latitude Longitude Altitude Speed Heading
2026-05-04 01:27 33.63950 -84.43976 1026 ft 0 kts 90°
2026-05-04 01:57 33.63950 -84.43984 1027 ft 2 kts 90°
2026-05-04 01:57 33.63950 -84.44002 1027 ft 2 kts 90°
2026-05-04 01:57 33.63950 -84.44019 1027 ft 2 kts 90°
2026-05-04 01:57 33.63950 -84.44041 1027 ft 3 kts 90°
2026-05-04 01:58 33.63955 -84.44073 1027 ft 3 kts 120°
2026-05-04 01:58 33.63967 -84.44084 1026 ft 1 kts 179°
2026-05-04 01:58 33.63969 -84.44084 1026 ft 0 kts 179°
2026-05-04 02:08 33.63963 -84.44084 1027 ft 2 kts 179°
2026-05-04 02:08 33.63931 -84.44084 1027 ft 5 kts 180°
2026-05-04 02:08 33.63886 -84.44072 1027 ft 6 kts 160°
2026-05-04 02:09 33.63839 -84.44053 1027 ft 6 kts 170°
2026-05-04 02:09 33.63798 -84.44051 1027 ft 6 kts 179°
2026-05-04 02:09 33.63746 -84.44051 1027 ft 7 kts 181°
2026-05-04 02:09 33.63693 -84.44041 1027 ft 7 kts 149°
2026-05-04 02:10 33.63665 -84.43987 1027 ft 8 kts 102°
2026-05-04 02:10 33.63662 -84.43891 1027 ft 12 kts 90°
2026-05-04 02:10 33.63663 -84.43774 1027 ft 13 kts 90°
2026-05-04 02:10 33.63663 -84.43694 1027 ft 13 kts 90°
2026-05-04 02:11 33.63663 -84.43532 1027 ft 14 kts 90°
2026-05-04 02:11 33.63663 -84.43408 1027 ft 14 kts 90°
2026-05-04 02:11 33.63663 -84.43280 1027 ft 14 kts 90°
2026-05-04 02:11 33.63663 -84.43150 1027 ft 15 kts 90°
2026-05-04 02:12 33.63663 -84.43018 1027 ft 15 kts 91°
2026-05-04 02:12 33.63662 -84.42882 1027 ft 15 kts 90°
2026-05-04 02:12 33.63660 -84.42746 1027 ft 15 kts 96°
2026-05-04 02:12 33.63655 -84.42608 1027 ft 16 kts 90°
2026-05-04 02:13 33.63655 -84.42467 1027 ft 16 kts 90°
2026-05-04 02:13 33.63654 -84.42324 1027 ft 16 kts 90°
2026-05-04 02:13 33.63654 -84.42180 1026 ft 16 kts 90°
2026-05-04 02:13 33.63654 -84.42031 1026 ft 17 kts 90°
2026-05-04 02:14 33.63654 -84.41874 1025 ft 18 kts 90°
2026-05-04 02:14 33.63654 -84.41712 1025 ft 18 kts 90°
2026-05-04 02:14 33.63654 -84.41555 1024 ft 18 kts 90°
2026-05-04 02:14 33.63654 -84.41379 1019 ft 21 kts 89°
2026-05-04 02:15 33.63655 -84.41198 1015 ft 15 kts 90°
2026-05-04 02:15 33.63655 -84.41056 1012 ft 17 kts 90°
2026-05-04 02:15 33.63641 -84.40924 1009 ft 14 kts 143°
2026-05-04 02:15 33.63542 -84.40909 1009 ft 12 kts 180°
2026-05-04 02:16 33.63474 -84.40919 1009 ft 5 kts 228°
2026-05-04 02:16 33.63469 -84.40965 1009 ft 0 kts 271°
2026-05-04 02:16 33.63469 -84.41003 1009 ft 18 kts 271°
2026-05-04 02:16 33.63471 -84.41519 1013 ft 100 kts 270°
2026-05-04 02:17 33.63466 -84.42697 1151 ft 162 kts 271°
2026-05-04 02:17 33.63462 -84.44099 2042 ft 173 kts 271°
2026-05-04 02:17 33.63463 -84.45570 2631 ft 185 kts 272°
2026-05-04 02:17 33.63464 -84.47179 3019 ft 200 kts 271°
2026-05-04 02:18 33.63461 -84.48901 3484 ft 213 kts 272°
2026-05-04 02:18 33.63468 -84.50731 3928 ft 230 kts 271°
2026-05-04 02:18 33.63462 -84.52724 4368 ft 247 kts 271°
2026-05-04 02:18 33.63464 -84.54852 4860 ft 264 kts 271°
2026-05-04 02:19 33.63462 -84.57072 5695 ft 267 kts 271°
2026-05-04 02:19 33.63461 -84.59297 6481 ft 271 kts 271°
2026-05-04 02:19 33.63459 -84.61540 7261 ft 274 kts 272°
2026-05-04 02:19 33.63456 -84.63826 8081 ft 276 kts 272°
2026-05-04 02:20 33.63455 -84.66130 8850 ft 280 kts 272°
2026-05-04 02:20 33.63465 -84.68480 9676 ft 281 kts 273°
2026-05-04 02:20 33.63476 -84.70844 10405 ft 287 kts 272°
2026-05-04 02:20 33.63232 -84.73304 10736 ft 310 kts 255°
2026-05-04 02:21 33.62307 -84.75745 11051 ft 333 kts 243°
2026-05-04 02:21 33.61146 -84.78249 11365 ft 352 kts 244°
2026-05-04 02:21 33.59968 -84.80865 11986 ft 360 kts 244°
2026-05-04 02:21 33.58789 -84.83486 12770 ft 363 kts 244°
2026-05-04 02:22 33.57583 -84.86179 13489 ft 367 kts 244°
2026-05-04 02:22 33.56391 -84.88846 14212 ft 370 kts 244°
2026-05-04 02:22 33.55168 -84.91579 14980 ft 372 kts 244°
2026-05-04 02:22 33.53947 -84.94311 15637 ft 375 kts 244°
2026-05-04 02:23 33.52714 -84.97067 16320 ft 377 kts 244°
2026-05-04 02:23 33.51466 -84.99857 16934 ft 381 kts 244°
2026-05-04 02:23 33.50207 -85.02664 17599 ft 384 kts 244°
2026-05-04 02:23 33.48956 -85.05458 18270 ft 386 kts 244°
2026-05-04 02:24 33.47674 -85.08315 18903 ft 390 kts 244°
2026-05-04 02:24 33.46400 -85.11152 19538 ft 393 kts 244°
2026-05-04 02:24 33.45097 -85.14053 20132 ft 397 kts 245°
2026-05-04 02:24 33.43803 -85.16930 20758 ft 400 kts 245°
2026-05-04 02:25 33.42493 -85.19898 21356 ft 402 kts 248°
2026-05-04 02:25 33.41516 -85.23026 21946 ft 401 kts 256°
2026-05-04 02:25 33.40722 -85.26201 22474 ft 405 kts 256°
2026-05-04 02:25 33.39907 -85.29444 23061 ft 407 kts 256°
2026-05-04 02:26 33.39095 -85.32703 23563 ft 410 kts 256°
2026-05-04 02:26 33.38291 -85.35932 24102 ft 413 kts 257°
2026-05-04 02:26 33.37467 -85.39253 24633 ft 416 kts 257°
2026-05-04 02:26 33.36639 -85.42587 25161 ft 420 kts 257°
2026-05-04 02:27 33.35819 -85.45888 25702 ft 422 kts 257°
2026-05-04 02:27 33.34976 -85.49280 26162 ft 426 kts 257°
2026-05-04 02:27 33.34128 -85.52683 26644 ft 429 kts 257°
2026-05-04 02:27 33.33275 -85.56107 27158 ft 430 kts 257°
2026-05-04 02:28 33.32426 -85.59511 27590 ft 433 kts 257°
2026-05-04 02:28 33.31557 -85.62991 28038 ft 435 kts 257°
2026-05-04 02:28 33.30686 -85.66470 28372 ft 440 kts 257°
2026-05-04 02:28 33.29800 -85.70007 28894 ft 441 kts 257°
2026-05-04 02:29 33.28915 -85.73542 29255 ft 444 kts 257°
2026-05-04 02:29 33.28014 -85.77126 29594 ft 448 kts 257°
2026-05-04 02:29 33.27116 -85.80695 30005 ft 450 kts 257°
2026-05-04 02:29 33.26217 -85.84259 30599 ft 447 kts 258°
2026-05-04 02:30 33.25323 -85.87803 31246 ft 442 kts 258°
2026-05-04 02:30 33.24445 -85.91281 31624 ft 444 kts 258°
2026-05-04 02:30 33.23549 -85.94830 32108 ft 442 kts 258°
2026-05-04 02:30 33.22659 -85.98341 32563 ft 441 kts 258°
2026-05-04 02:31 33.21770 -86.01850 33055 ft 439 kts 258°
2026-05-04 02:31 33.20888 -86.05328 33466 ft 438 kts 258°
2026-05-04 02:31 33.20006 -86.08797 34001 ft 435 kts 258°
2026-05-04 02:31 33.19138 -86.12207 34136 ft 433 kts 259°
2026-05-04 02:32 33.17373 -86.19136 34132 ft 433 kts 259°
2026-05-04 02:32 33.15615 -86.26015 34136 ft 432 kts 259°
2026-05-04 02:33 33.13855 -86.32884 34134 ft 433 kts 258°
2026-05-04 02:33 33.12085 -86.39775 34138 ft 433 kts 259°
2026-05-04 02:34 33.10323 -86.46617 34123 ft 433 kts 259°
2026-05-04 02:34 33.08187 -86.53339 34130 ft 442 kts 247°
2026-05-04 02:35 33.04281 -86.59132 34127 ft 459 kts 227°
2026-05-04 02:35 32.98977 -86.63591 34118 ft 468 kts 220°
2026-05-04 02:36 32.93543 -86.67863 34120 ft 467 kts 219°
2026-05-04 02:36 32.88148 -86.72090 34110 ft 468 kts 219°
2026-05-04 02:37 32.82630 -86.76403 34114 ft 467 kts 219°
2026-05-04 02:37 32.77157 -86.80674 34102 ft 469 kts 219°
2026-05-04 02:38 32.71775 -86.84869 34110 ft 468 kts 219°
2026-05-04 02:38 32.66312 -86.89115 34107 ft 465 kts 219°
2026-05-04 02:39 32.60901 -86.93321 34109 ft 468 kts 219°
2026-05-04 02:39 32.55438 -86.97557 34112 ft 467 kts 219°
2026-05-04 02:40 32.49999 -87.01769 34109 ft 467 kts 219°
2026-05-04 02:40 32.44524 -87.06002 34108 ft 465 kts 219°
2026-05-04 02:41 32.39090 -87.10200 34116 ft 468 kts 219°
2026-05-04 02:41 32.33611 -87.14425 34119 ft 469 kts 219°
2026-05-04 02:42 32.28138 -87.18639 34116 ft 468 kts 219°
2026-05-04 02:42 32.22698 -87.22819 34119 ft 467 kts 219°
2026-05-04 02:43 32.17249 -87.27003 34109 ft 467 kts 219°
2026-05-04 02:43 32.11765 -87.31209 34116 ft 470 kts 219°
2026-05-04 02:44 32.06263 -87.35419 34114 ft 468 kts 219°
2026-05-04 02:44 32.00808 -87.39588 34117 ft 468 kts 219°
2026-05-04 02:45 31.95325 -87.43773 34119 ft 467 kts 219°
2026-05-04 02:45 31.89921 -87.47892 34120 ft 467 kts 219°
2026-05-04 02:46 31.84416 -87.52081 34112 ft 466 kts 220°
2026-05-04 02:46 31.79013 -87.56188 34103 ft 466 kts 220°
2026-05-04 02:47 31.73509 -87.60365 34108 ft 465 kts 220°
2026-05-04 02:47 31.68371 -87.64258 34114 ft 464 kts 220°
2026-05-04 02:48 31.62892 -87.68407 34120 ft 466 kts 219°
2026-05-04 02:48 31.57394 -87.72561 34116 ft 464 kts 219°
2026-05-04 02:49 31.51948 -87.76672 34128 ft 466 kts 219°
2026-05-04 02:49 31.46458 -87.80807 34118 ft 464 kts 220°
2026-05-04 02:50 31.41025 -87.84896 34130 ft 464 kts 219°
2026-05-04 02:50 31.35611 -87.88964 34127 ft 464 kts 220°
2026-05-04 02:51 31.30177 -87.93041 34131 ft 461 kts 220°
2026-05-04 02:51 31.24739 -87.97118 34133 ft 463 kts 220°
2026-05-04 02:52 31.19338 -88.01159 34137 ft 462 kts 220°
2026-05-04 02:52 31.13882 -88.05238 34131 ft 463 kts 220°
2026-05-04 02:53 31.08503 -88.09251 34131 ft 460 kts 220°
2026-05-04 02:53 31.03100 -88.13277 34128 ft 460 kts 220°
2026-05-04 02:54 30.97727 -88.17275 34138 ft 456 kts 220°
2026-05-04 02:54 30.92324 -88.21293 34141 ft 459 kts 220°
2026-05-04 02:55 30.84278 -88.27255 34121 ft 440 kts 221°
2026-05-04 02:56 30.79157 -88.31058 33689 ft 444 kts 221°
2026-05-04 02:56 30.76534 -88.33017 33208 ft 445 kts 223°
2026-05-04 02:56 30.74160 -88.35220 32720 ft 431 kts 232°
2026-05-04 02:56 30.72184 -88.37820 32215 ft 420 kts 242°
2026-05-04 02:57 30.70666 -88.40680 31667 ft 415 kts 249°
2026-05-04 02:57 30.69305 -88.43639 31127 ft 417 kts 249°
2026-05-04 02:57 30.67945 -88.46613 30600 ft 418 kts 249°
2026-05-04 02:57 30.66595 -88.49607 30094 ft 420 kts 249°
2026-05-04 02:58 30.65249 -88.52610 29587 ft 423 kts 249°
2026-05-04 02:58 30.63884 -88.55668 29091 ft 421 kts 249°
2026-05-04 02:58 30.62543 -88.58677 28580 ft 418 kts 249°
2026-05-04 02:58 30.61225 -88.61638 28110 ft 412 kts 249°
2026-05-04 02:59 30.59914 -88.64584 27602 ft 409 kts 249°
2026-05-04 02:59 30.58592 -88.67560 27079 ft 409 kts 249°
2026-05-04 02:59 30.57289 -88.70492 26573 ft 408 kts 249°
2026-05-04 02:59 30.55992 -88.73405 26072 ft 406 kts 248°
2026-05-04 03:00 30.54680 -88.76350 25560 ft 403 kts 248°
2026-05-04 03:00 30.53385 -88.79258 25062 ft 399 kts 248°
2026-05-04 03:00 30.52108 -88.82119 24572 ft 397 kts 248°
2026-05-04 03:00 30.50840 -88.84963 24051 ft 397 kts 248°
2026-05-04 03:01 30.49554 -88.87842 23529 ft 395 kts 248°
2026-05-04 03:01 30.48278 -88.90699 23026 ft 392 kts 248°
2026-05-04 03:01 30.47018 -88.93514 22543 ft 388 kts 248°
2026-05-04 03:01 30.45783 -88.96273 22073 ft 385 kts 248°
2026-05-04 03:02 30.44551 -88.99029 21607 ft 385 kts 247°
2026-05-04 03:02 30.43314 -89.01789 21138 ft 385 kts 247°
2026-05-04 03:02 30.42066 -89.04572 20662 ft 383 kts 247°
2026-05-04 03:02 30.40822 -89.07342 20204 ft 380 kts 247°
2026-05-04 03:03 30.39692 -89.10098 19748 ft 376 kts 251°
2026-05-04 03:03 30.38716 -89.12873 19302 ft 376 kts 251°
2026-05-04 03:03 30.37693 -89.15699 18832 ft 375 kts 251°
2026-05-04 03:03 30.36692 -89.18445 18388 ft 374 kts 250°
2026-05-04 03:04 30.35675 -89.21217 17933 ft 373 kts 250°
2026-05-04 03:04 30.34658 -89.23976 17469 ft 372 kts 250°
2026-05-04 03:04 30.33639 -89.26737 17009 ft 369 kts 250°
2026-05-04 03:04 30.32648 -89.29420 16589 ft 365 kts 250°
2026-05-04 03:05 30.31643 -89.32134 16147 ft 363 kts 250°
2026-05-04 03:05 30.30657 -89.34795 15711 ft 362 kts 250°
2026-05-04 03:05 30.29658 -89.37492 15247 ft 360 kts 250°
2026-05-04 03:05 30.28672 -89.40148 14810 ft 357 kts 250°
2026-05-04 03:06 30.27702 -89.42760 14370 ft 354 kts 250°
2026-05-04 03:06 30.26724 -89.45392 13930 ft 353 kts 250°
2026-05-04 03:06 30.25745 -89.48025 13527 ft 353 kts 250°
2026-05-04 03:06 30.24779 -89.50621 13106 ft 352 kts 250°
2026-05-04 03:07 30.23818 -89.53198 12670 ft 349 kts 250°
2026-05-04 03:07 30.22853 -89.55787 12239 ft 347 kts 250°
2026-05-04 03:07 30.21903 -89.58333 11803 ft 345 kts 250°
2026-05-04 03:07 30.20955 -89.60870 11413 ft 342 kts 250°
2026-05-04 03:08 30.20019 -89.63375 11207 ft 337 kts 249°
2026-05-04 03:08 30.19084 -89.65878 11159 ft 329 kts 249°
2026-05-04 03:08 30.18210 -89.68208 11153 ft 313 kts 249°
2026-05-04 03:08 30.18158 -89.68346 11154 ft 312 kts 249°